Regional Weather Roundup
Issued by NWS

Home | Current Version | Previous Version | Text Only | Print | Product List | Glossary On
Versions: 1 2 3 4 5 6 7 8 9 10 11 12 13 14 15 16 17 18 19 20 21 22 23 24 25 26 27 28 29 30 31 32 33 34 35 36 37 38 39 40 41 42 43 44 45 46
797
ASUS46 KPQR 290610
RWROR

OREGON REGIONAL WEATHER ROUNDUP
NATIONAL WEATHER SERVICE PORTLAND OR
1100 PM PDT TUE MAR 28 2017

NOTE: "FAIR" INDICATES FEW OR NO CLOUDS BELOW 12,000 FEET WITH
NO SIGNIFICANT WEATHER AND/OR OBSTRUCTIONS TO VISIBILITY.

ORZ001>013-290700-
NORTHWEST OREGON


CITY           SKY/WX    TMP DP  RH WIND       PRES   REMARKS
ASTORIA        LGT RAIN  47  39  74 S8        30.13F
6HR MIN TEMP:  47; 6HR MAX TEMP:  52; 6HR PCP:  0.06;

NEWPORT        DRIZZLE   46  43  87 S10       30.22F
PORTLAND       LGT RAIN  50  41  71 SE6       30.23F
6HR MIN TEMP:  50; 6HR MAX TEMP:  58; 6HR PCP:  0.01;

VANCOUVER WA   LGT RAIN  51  42  71 CALM      30.22F
6HR MIN TEMP:  51; 6HR MAX TEMP:  59; 6HR PCP:  0.01;

SCAPPOOSE      LGT RAIN  49  41  74 CALM      30.21F
6HR MIN TEMP:  49; 6HR MAX TEMP:  58; 6HR PCP:  0.01;

HILLSBORO      LGT RAIN  49  41  74 SW5       30.20F
6HR MIN TEMP:  49; 6HR MAX TEMP:  58; 6HR PCP: TRACE;

AURORA         LGT RAIN  49  42  77 E3        30.22F
6HR MIN TEMP:  49; 6HR MAX TEMP:  60; 6HR PCP:  0.04;

MCMINNVILLE    LGT RAIN  47  42  83 CALM      30.21F
6HR MIN TEMP:  47; 6HR MAX TEMP:  60; 6HR PCP:  0.04;

SALEM          LGT RAIN  49  44  83 E6        30.19F
6HR MIN TEMP:  49; 6HR MAX TEMP:  61; 6HR PCP:  0.03;

CORVALLIS      CLOUDY    48  39  71 CALM      30.20F
EUGENE         CLOUDY    51  45  79 W6        30.22S
6HR MIN TEMP:  51; 6HR MAX TEMP:  60; 6HR PCP: TRACE;

$$

ORZ021-028-290700-
SOUTHWEST OREGON


CITY           SKY/WX    TMP DP  RH WIND       PRES   REMARKS
NORTH BEND     CLOUDY    50  45  81 S7        30.26F
6HR MIN TEMP:  50; 6HR MAX TEMP:  55; 6HR PCP:  0.01;

BROOKINGS      CLOUDY    51  45  79 SE5       30.31R
ROSEBURG       CLOUDY    57  45  64 CALM      30.23S
6HR MIN TEMP:  57; 6HR MAX TEMP:  65; 6HR PCP: TRACE;

SEXTON SUMMIT  CLOUDY    44  32  62 S12       30.24F
6HR MIN TEMP:  44; 6HR MAX TEMP:  50;

MEDFORD        CLOUDY    56  38  50 CALM      30.25F
6HR MIN TEMP:  55; 6HR MAX TEMP:  63;

$$

ORZ014>016-041-290700-
COLUMBIA GORGE


CITY           SKY/WX    TMP DP  RH WIND       PRES   REMARKS
TROUTDALE      LGT RAIN  51  45  79 CALM      30.23F
6HR MIN TEMP:  51; 6HR MAX TEMP:  60; 6HR PCP:  0.02;

THE DALLES     CLOUDY    51  44  77 NW7       30.20F
6HR MIN TEMP:  51; 6HR MAX TEMP:  58;

$$

ORZ029>031-041-044-049-050-061>064-502-503-505>511-290700-
EASTERN OREGON


CITY           SKY/WX    TMP DP  RH WIND       PRES   REMARKS
REDMOND        CLOUDY    47  28  47 S9        30.19F
6HR MIN TEMP:  46; 6HR MAX TEMP:  55;

BEND           PTCLDY    46  30  53 S9        30.19F
PRINEVILLE     CLOUDY    48  30  49 S9G16     30.19F
KLAMATH FALLS  PTCLDY    39  34  82 SE5       30.28F
6HR MIN TEMP:  39; 6HR MAX TEMP:  53;

LAKEVIEW       CLEAR     34  28  80 CALM      30.32S
HERMISTON      CLOUDY    50  44  80 S6        30.20F
6HR MIN TEMP:  50; 6HR MAX TEMP:  57;

PENDLETON      CLOUDY    47  41  80 E6        30.20F
6HR MIN TEMP:  47; 6HR MAX TEMP:  52; 6HR PCP: TRACE;

JOHN DAY       MOCLDY    42  34  74 CALM      30.23F
MEACHAM        CLOUDY    38  34  85 CALM      30.20F
6HR MIN TEMP:  38; 6HR MAX TEMP:  42; 6HR PCP: TRACE;

LA GRANDE      CLOUDY    45  37  76 SE5       30.22F
6HR MIN TEMP:  45; 6HR MAX TEMP:  50;

BAKER CITY     MOCLDY    38  35  89 E3        30.24F
6HR MIN TEMP:  38; 6HR MAX TEMP:  49;

BURNS          MOCLDY    36  33  89 N3        30.26F
6HR MIN TEMP:  36; 6HR MAX TEMP:  51;

ROME             N/A     38  31  76 SE9       30.27S WCI  31
6HR MIN TEMP:  36; 6HR MAX TEMP:  55;

ONTARIO        MOCLDY    46  36  68 CALM      30.27F
6HR MIN TEMP:  45; 6HR MAX TEMP:  58;

$$




USA.gov is the U.S. government's official web portal to all federal, state and local government web resources and services.